Location: Friaudour
(46.0460°N, 1.2873°E)
Time: 20:52:16
(UTC+00:00)

Cosmos 1954 Rocket - Pass Details

Date: 14 July 2020
Orbit: 751 x 782 km, 74.0° (Epoch: 14 August)

Event Time Altitude Azimuth Distance (km) Brightness Sun altitude
Exits shadow 02:08:17 25° 190° (S) 1,514 5.0 -16.4°
Maximum altitude 02:11:22 75° 109° (ESE) 806 4.1 -16.1°
Drops below altitude 10° 02:16:41 10° 25° (NNE) 2,340 7.9 -15.7°
Sets 02:19:05 0° 24° (NNE) 3,275 9.0 -15.4°
